Sitka, AK

9:56 PM AKST on February 20, 2017 (GMT -0900)
Sitka Rocky Gutierrez

Weather History for PASI - March, 2013

Change the Weather History Date:

Tuesday, March 19, 2013

  Actual Average Record
Temperature  
Mean Temperature 32 °F -  
Max Temperature 35 °F 43 °F 54 °F (1998)
Min Temperature 30 °F 33 °F 21 °F (2002)
Degree Days  
Heating Degree Days 32    
Moisture  
Dew Point 30 °F    
Average Humidity 91    
Maximum Humidity 100    
Minimum Humidity 72    
Precipitation  
Precipitation 0.32 in - - ()
Sea Level Pressure  
Sea Level Pressure 29.68 in    
Wind  
Wind Speed 7 mph (ESE)    
Max Wind Speed 13 mph    
Max Gust Speed 21 mph    
Visibility 4 miles    
Events Fog , Snow    
Averages and records for this station are not official NWS values.
T = Trace of Precipitation, MM = Missing Value Source: NWS Daily Summary

Daily Weather History Graph

Daily Weather History Graph

Search for Another Location

Airport or City:

Trip Planner

Search our weather history database for the weather conditions in past years. The results will help you decide how hot, cold, wet, or windy it might be!

Date:

Astronomy

Mar. 19, 2013 Rise Set
Actual Time 7:04 AM AKDT 7:14 PM AKDT
Civil Twilight 6:26 AM AKDT 7:52 PM AKDT
Nautical Twilight 5:41 AM AKDT 8:38 PM AKDT
Astronomical Twilight 4:53 AM AKDT 9:26 PM AKDT
Moon 10:55 AM AKDT (3/19) 3:13 AM AKDT (3/19)
Length of Visible Light 13h 25m
Length of Day
12h 09m
Waxing Crescent, 51% of the Moon is Illuminated
Mar 19
Waxing Crescent
Mar 27
Full
Apr 2
Last Quarter
Apr 10
New
Apr 18
First Quarter

Hourly Weather History & Observations

Time (AKDT) Temp. Windchill Dew Point Humidity Pressure Visibility Wind Dir Wind Speed Gust Speed Precip Events Conditions
12:03 AM 33.8 °F 27.0 °F 33.8 °F 100% 29.80 in 5.0 mi East 8.1 mph - 0.00 in Snow Light Snow
12:30 AM 33.8 °F 28.6 °F 32.0 °F 93% 29.79 in 9.0 mi East 5.8 mph - 0.01 in   Overcast
12:53 AM 34.0 °F 26.0 °F 32.0 °F 92% 29.77 in 10.0 mi West 10.4 mph - 0.01 in   Overcast
1:04 AM 33.8 °F 27.7 °F 32.0 °F 93% 29.77 in 2.5 mi SSE 6.9 mph - 0.00 in Snow Light Snow
1:06 AM 33.8 °F 26.4 °F 30.2 °F 87% 29.78 in 1.8 mi SSE 9.2 mph - 0.00 in Snow Light Snow
1:10 AM 33.8 °F 25.3 °F 30.2 °F 87% 29.78 in 0.8 mi ESE 11.5 mph 18.4 mph 0.00 in Snow Light Snow
1:20 AM 33.8 °F 28.6 °F 32.0 °F 93% 29.77 in 0.5 mi ESE 5.8 mph - 0.01 in Fog , Snow Snow
1:27 AM 33.8 °F 27.7 °F 32.0 °F 93% 29.77 in 2.0 mi ESE 6.9 mph - 0.01 in Snow Light Snow
1:35 AM 33.8 °F 26.4 °F 32.0 °F 93% 29.76 in 9.0 mi ESE 9.2 mph - 0.01 in   Overcast
1:43 AM 33.8 °F 29.6 °F 30.2 °F 87% 29.76 in 10.0 mi East 4.6 mph - 0.01 in   Overcast
1:53 AM 33.1 °F 24.9 °F 30.9 °F 92% 29.76 in 8.0 mi SE 10.4 mph - 0.01 in   Overcast
2:01 AM 33.8 °F 26.4 °F 30.2 °F 87% 29.76 in 1.8 mi SE 9.2 mph - 0.01 in Snow Light Snow
2:08 AM 33.8 °F 25.8 °F 30.2 °F 87% 29.76 in 1.5 mi SE 10.4 mph - 0.01 in Snow Light Snow
2:19 AM 33.8 °F 26.4 °F 30.2 °F 87% 29.76 in 3.0 mi ESE 9.2 mph - 0.01 in Snow Light Snow
2:41 AM 33.8 °F 27.7 °F 30.2 °F 87% 29.74 in 9.0 mi East 6.9 mph - 0.01 in   Overcast
2:53 AM 33.1 °F 26.1 °F 30.9 °F 92% 29.73 in 10.0 mi East 8.1 mph - 0.01 in   Overcast
3:06 AM 33.8 °F 30.8 °F 30.2 °F 87% 29.73 in 9.0 mi East 3.5 mph - 0.00 in Snow Light Snow
3:15 AM 33.8 °F 24.8 °F 30.2 °F 87% 29.74 in 1.5 mi SSE 12.7 mph 20.7 mph 0.00 in Snow Light Snow
3:19 AM 33.8 °F 26.4 °F 30.2 °F 87% 29.75 in 0.8 mi SE 9.2 mph 20.7 mph 0.01 in Snow Light Snow
3:27 AM 33.8 °F 29.6 °F 32.0 °F 93% 29.74 in 0.8 mi South 4.6 mph - 0.02 in Snow Light Snow
3:32 AM 33.8 °F 29.6 °F 32.0 °F 93% 29.74 in 2.0 mi SSE 4.6 mph - 0.02 in Snow Light Snow
3:42 AM 32.0 °F 25.6 °F 32.0 °F 100% 29.73 in 3.0 mi East 6.9 mph - 0.02 in Snow Light Snow
3:51 AM 32.0 °F 26.4 °F 30.2 °F 93% 29.73 in 4.0 mi East 5.8 mph - 0.02 in Snow Light Snow
3:53 AM 32.0 °F 26.4 °F 30.9 °F 96% 29.73 in 4.0 mi East 5.8 mph - 0.02 in Snow Light Snow
3:55 AM 32.0 °F 25.6 °F 30.2 °F 93% 29.72 in 4.0 mi East 6.9 mph - 0.00 in Snow Light Snow
4:06 AM 32.0 °F 25.6 °F 30.2 °F 93% 29.72 in 1.8 mi East 6.9 mph - 0.00 in Snow Light Snow
4:16 AM 32.0 °F 25.6 °F 32.0 °F 100% 29.72 in 0.5 mi East 6.9 mph - 0.03 in Fog , Snow Snow
4:28 AM 32.0 °F 28.7 °F 32.0 °F 100% 29.71 in 0.2 mi South 3.5 mph - 0.07 in Fog , Snow Heavy Snow
4:51 AM 32.0 °F 28.7 °F 32.0 °F 100% 29.70 in 1.0 mi ESE 3.5 mph - 0.13 in Snow Light Snow
4:53 AM 32.0 °F - 32.0 °F 100% 29.70 in 1.0 mi Calm Calm - 0.14 in Snow Light Snow
5:03 AM 32.0 °F 26.4 °F 30.2 °F 93% 29.70 in 0.5 mi SE 5.8 mph - 0.02 in Fog , Snow Snow
5:19 AM 32.0 °F 24.8 °F 30.2 °F 93% 29.69 in 1.8 mi East 8.1 mph - 0.02 in Snow Light Snow
5:21 AM 32.0 °F 25.6 °F 30.2 °F 93% 29.69 in 2.5 mi East 6.9 mph - 0.02 in Snow Light Snow
5:29 AM 32.0 °F 23.6 °F 30.2 °F 93% 29.68 in 5.0 mi East 10.4 mph - 0.02 in   Mostly Cloudy
5:42 AM 32.0 °F 25.6 °F 30.2 °F 93% 29.67 in 10.0 mi East 6.9 mph - 0.02 in   Mostly Cloudy
5:53 AM 32.0 °F 27.5 °F 30.0 °F 92% 29.68 in 9.0 mi ESE 4.6 mph - 0.02 in   Overcast
5:58 AM 33.8 °F 28.6 °F 30.2 °F 87% 29.68 in 1.8 mi ESE 5.8 mph - 0.02 in Snow Light Snow
6:15 AM 33.8 °F 26.4 °F 30.2 °F 87% 29.68 in 2.0 mi SE 9.2 mph - 0.02 in Snow Light Snow
6:24 AM 32.0 °F 23.0 °F 30.2 °F 93% 29.68 in 8.0 mi East 11.5 mph - 0.02 in   Overcast
6:40 AM 32.0 °F 24.2 °F 30.2 °F 93% 29.67 in 2.0 mi ESE 9.2 mph - 0.03 in Snow Light Snow
6:42 AM 32.0 °F 24.2 °F 30.2 °F 93% 29.67 in 1.0 mi ESE 9.2 mph - 0.03 in Snow Light Snow
6:53 AM 32.0 °F 24.2 °F 32.0 °F 100% 29.67 in 1.0 mi ESE 9.2 mph - 0.03 in Snow Light Snow
7:06 AM 32.0 °F 24.8 °F 32.0 °F 100% 29.66 in 4.0 mi East 8.1 mph - 0.01 in Snow Light Snow
7:13 AM 32.0 °F 24.2 °F 30.2 °F 93% 29.66 in 4.0 mi East 9.2 mph - 0.01 in   Overcast
7:25 AM 32.0 °F 25.6 °F 30.2 °F 93% 29.65 in 3.0 mi East 6.9 mph - 0.01 in   Overcast
7:41 AM 32.0 °F 25.6 °F 30.2 °F 93% 29.65 in 2.5 mi East 6.9 mph - 0.01 in Snow Light Snow
7:46 AM 32.0 °F 26.4 °F 30.2 °F 93% 29.65 in 3.0 mi ESE 5.8 mph - 0.01 in Snow Light Snow
7:53 AM 33.1 °F 26.9 °F 30.9 °F 92% 29.65 in 2.5 mi ESE 6.9 mph - 0.01 in Snow Light Snow
7:55 AM 33.8 °F 27.0 °F 30.2 °F 87% 29.65 in 1.0 mi ESE 8.1 mph - 0.00 in Snow Light Snow
8:09 AM 33.8 °F 27.7 °F 30.2 °F 87% 29.65 in 2.5 mi ESE 6.9 mph - 0.00 in Snow Light Snow
8:11 AM 33.8 °F 27.0 °F 30.2 °F 87% 29.66 in 0.8 mi ESE 8.1 mph - 0.00 in Snow Light Snow
8:30 AM 33.8 °F 27.0 °F 32.0 °F 93% 29.66 in 0.5 mi SE 8.1 mph - 0.02 in Fog , Snow Snow
8:34 AM 33.8 °F 26.4 °F 32.0 °F 93% 29.66 in 0.5 mi SE 9.2 mph - 0.02 in Fog , Snow Snow
8:53 AM 33.1 °F 28.7 °F 32.0 °F 96% 29.66 in 1.5 mi SE 4.6 mph - 0.03 in Snow Light Snow
8:56 AM 33.8 °F 28.6 °F 33.8 °F 100% 29.66 in 3.0 mi ESE 5.8 mph - 0.00 in Snow Light Snow
9:05 AM 32.0 °F 26.4 °F 32.0 °F 100% 29.65 in 8.0 mi East 5.8 mph - 0.00 in Snow Light Snow
9:19 AM 32.0 °F 26.4 °F 30.2 °F 93% 29.65 in 7.0 mi East 5.8 mph - 0.00 in   Overcast
9:53 AM 34.0 °F 28.0 °F 30.9 °F 89% 29.65 in 10.0 mi East 6.9 mph - 0.00 in   Mostly Cloudy
10:53 AM 34.0 °F 27.2 °F 30.0 °F 85% 29.65 in 3.0 mi SE 8.1 mph - 0.01 in Snow Light Snow
10:55 AM 33.8 °F 25.8 °F 30.2 °F 87% 29.65 in 1.0 mi South 10.4 mph 16.1 mph 0.00 in Snow Light Snow
11:01 AM 33.8 °F 24.8 °F 30.2 °F 87% 29.65 in 1.5 mi SSE 12.7 mph 20.7 mph 0.01 in Snow Light Snow
11:15 AM 32.0 °F 24.8 °F 30.2 °F 93% 29.65 in 5.0 mi ESE 8.1 mph - 0.01 in Snow Light Snow
11:18 AM 32.0 °F 24.2 °F 28.4 °F 87% 29.65 in 6.0 mi ESE 9.2 mph - 0.01 in Snow Light Snow
11:27 AM 32.0 °F 28.7 °F 28.4 °F 87% 29.65 in 9.0 mi ESE 3.5 mph - 0.01 in   Mostly Cloudy
11:53 AM 33.1 °F 27.7 °F 28.9 °F 85% 29.64 in 7.0 mi East 5.8 mph - 0.01 in   Mostly Cloudy
12:07 PM 33.8 °F 29.6 °F 30.2 °F 87% 29.64 in 3.0 mi East 4.6 mph - 0.00 in Snow Light Snow
12:11 PM 33.8 °F 27.7 °F 30.2 °F 87% 29.64 in 2.5 mi East 6.9 mph - 0.00 in Snow Light Snow
12:21 PM 33.8 °F 27.7 °F 28.4 °F 81% 29.64 in 0.5 mi NE 6.9 mph - 0.00 in Fog , Snow Snow
12:34 PM 32.0 °F 27.5 °F 28.4 °F 87% 29.64 in 1.0 mi NNE 4.6 mph - 0.01 in Snow Light Snow
12:42 PM 32.0 °F 26.4 °F 28.4 °F 87% 29.63 in 4.0 mi North 5.8 mph - 0.01 in Snow Light Snow
12:53 PM 33.1 °F 30.0 °F 32.0 °F 96% 29.63 in 7.0 mi North 3.5 mph - 0.01 in Snow Light Snow
1:53 PM 34.0 °F - 30.0 °F 85% 29.63 in 3.0 mi Calm Calm - 0.00 in Snow Light Snow
1:55 PM 33.8 °F - 30.2 °F 87% 29.63 in 1.5 mi Calm Calm - 0.00 in Snow Light Snow
1:59 PM 33.8 °F 30.8 °F 30.2 °F 87% 29.63 in 1.0 mi North 3.5 mph - 0.00 in Snow Light Snow
2:30 PM 33.8 °F 27.7 °F 30.2 °F 87% 29.62 in 4.0 mi North 6.9 mph - 0.01 in Snow Light Snow
2:53 PM 34.0 °F - 30.0 °F 85% 29.62 in 4.0 mi Calm Calm - 0.01 in Snow Light Snow
3:53 PM 34.0 °F - 30.0 °F 85% 29.61 in 5.0 mi Calm Calm - 0.00 in Snow Light Snow
4:53 PM 35.1 °F - 30.9 °F 85% 29.60 in 10.0 mi Calm Calm - 0.00 in   Mostly Cloudy
5:53 PM 34.0 °F 31.0 °F 30.0 °F 85% 29.58 in 10.0 mi NW 3.5 mph - N/A   Mostly Cloudy
6:53 PM 35.1 °F 30.1 °F 30.0 °F 82% 29.58 in 10.0 mi North 5.8 mph - N/A   Overcast
7:53 PM 32.0 °F 28.7 °F 28.9 °F 88% 29.57 in 10.0 mi East 3.5 mph - N/A   Mostly Cloudy
8:53 PM 30.9 °F - 30.9 °F 100% 29.57 in 10.0 mi Calm Calm - N/A   Clear
9:53 PM 30.0 °F 25.2 °F 27.0 °F 88% 29.57 in 10.0 mi East 4.6 mph - N/A   Clear
10:53 PM 30.0 °F 25.2 °F 24.1 °F 79% 29.56 in 10.0 mi East 4.6 mph - N/A   Clear
11:53 PM 30.0 °F 24.1 °F 21.9 °F 72% 29.55 in 10.0 mi East 5.8 mph - N/A   Clear